• In Hungary
  • List of Countries
  • For 7 days
  • Water Temperature
  • Satellite Maps
  • Weather Map
  • News
  • Weather Widgets
  • user-avatar
    Login

    Hourly Weather Nsok

    Today, 24 February, Saturday

    Time Temperature Precipitation Wind Pressure Humidity
    00:00 +20°C° 0 mm 0 mps 706 mmHg 94%
    01:00 +20°C° 0 mm 0 mps 706 mmHg 95%
    02:00 +20°C° 0 mm 0 mps 706 mmHg 95%
    03:00 +20°C° 0 mm 0 mps 706 mmHg 94%
    04:00 +19°C° 0 mm 0 mps 706 mmHg 94%
    05:00 +19°C° 0 mm 0 mps 707 mmHg 94%
    06:00 +19°C° 0 mm 0 mps 707 mmHg 94%
    07:00 +20°C° 0 mm 0 mps 707 mmHg 92%
    08:00 +23°C° 0 mm 0 mps 708 mmHg 80%
    09:00 +26°C° 0 mm 0 mps 708 mmHg 69%
    10:00 +28°C° 0 mm 0 mps 708 mmHg 57%
    11:00 +30°C° 0 mm 0 mps 708 mmHg 51%
    12:00 +33°C° 0 mm 0 mps 708 mmHg 46%
    13:00 +34°C° 0 mm 0 mps 707 mmHg 41%
    14:00 +33°C° 0 mm 0 mps 707 mmHg 45%
    15:00 +32°C° 0 mm 0 mps 706 mmHg 48%
    16:00 +32°C° 0 mm 1 mps 705 mmHg 51%
    17:00 +30°C° 0.6 mm 1 mps 706 mmHg 61%
    18:00 +28°C° 0.6 mm 1 mps 706 mmHg 71%
    19:00 +26°C° 0.6 mm 2 mps 706 mmHg 81%
    20:00 +25°C° 0.6 mm 2 mps 706 mmHg 85%
    21:00 +24°C° 0.6 mm 1 mps 707 mmHg 89%
    22:00 +23°C° 0.6 mm 1 mps 707 mmHg 93%
    23:00 +23°C° 0.2 mm 1 mps 707 mmHg 93%

    Tomorrow, 25 February, Sunday

    Time Temperature Precipitation Wind Pressure Humidity
    00:00 +23°C° 0.2 mm 1 mps 707 mmHg 94%
    01:00 +23°C° 0.2 mm 1 mps 707 mmHg 94%
    02:00 +23°C° 0 mm 1 mps 707 mmHg 95%
    03:00 +23°C° 0 mm 1 mps 707 mmHg 95%
    04:00 +22°C° 0 mm 1 mps 707 mmHg 96%
    05:00 +20°C° 0 mm 0 mps 707 mmHg 96%
    06:00 +20°C° 0 mm 0 mps 708 mmHg 96%
    07:00 +20°C° 0 mm 0 mps 708 mmHg 96%
    08:00 +22°C° 0 mm 0 mps 708 mmHg 88%
    09:00 +26°C° 0 mm 1 mps 709 mmHg 80%
    10:00 +28°C° 0 mm 1 mps 709 mmHg 71%
    11:00 +29°C° 0.2 mm 1 mps 709 mmHg 68%
    12:00 +30°C° 0.2 mm 1 mps 708 mmHg 64%
    13:00 +31°C° 0.2 mm 1 mps 708 mmHg 60%
    14:00 +31°C° 0.7 mm 1 mps 707 mmHg 64%
    15:00 +30°C° 0.7 mm 1 mps 706 mmHg 68%
    16:00 +30°C° 0.7 mm 2 mps 706 mmHg 71%
    17:00 +28°C° 3.3 mm 2 mps 706 mmHg 79%
    18:00 +26°C° 3.3 mm 1 mps 706 mmHg 86%
    19:00 +24°C° 3.3 mm 1 mps 706 mmHg 93%
    20:00 +24°C° 1.7 mm 1 mps 707 mmHg 93%
    21:00 +23°C° 1.7 mm 2 mps 707 mmHg 94%
    22:00 +23°C° 1.7 mm 2 mps 708 mmHg 95%
    23:00 +23°C° 1.9 mm 1 mps 708 mmHg 95%

    Day after tomorrow, 26 February, Monday

    Time Temperature Precipitation Wind Pressure Humidity
    00:00 +23°C° 1.9 mm 1 mps 708 mmHg 96%
    01:00 +23°C° 1.9 mm 1 mps 708 mmHg 96%
    02:00 +22°C° 1.5 mm 1 mps 708 mmHg 96%
    03:00 +22°C° 1.5 mm 1 mps 707 mmHg 96%
    04:00 +22°C° 1.5 mm 1 mps 707 mmHg 96%
    05:00 +22°C° 0.7 mm 1 mps 707 mmHg 96%
    06:00 +22°C° 0.7 mm 1 mps 708 mmHg 97%
    07:00 +22°C° 0.7 mm 1 mps 708 mmHg 97%
    08:00 +23°C° 0.1 mm 1 mps 708 mmHg 95%
    09:00 +23°C° 0.1 mm 1 mps 709 mmHg 93%
    10:00 +24°C° 0.1 mm 1 mps 709 mmHg 92%
    11:00 +25°C° 0 mm 1 mps 709 mmHg 85%
    12:00 +26°C° 0 mm 1 mps 708 mmHg 78%
    13:00 +28°C° 0 mm 2 mps 708 mmHg 71%
    14:00 +28°C° 0.5 mm 1 mps 707 mmHg 73%
    15:00 +28°C° 0.5 mm 1 mps 706 mmHg 75%
    16:00 +28°C° 0.5 mm 1 mps 706 mmHg 76%
    17:00 +27°C° 0.6 mm 1 mps 706 mmHg 82%
    18:00 +25°C° 0.6 mm 1 mps 707 mmHg 88%
    19:00 +24°C° 0.6 mm 1 mps 707 mmHg 93%
    20:00 +24°C° 1.5 mm 1 mps 708 mmHg 94%
    21:00 +23°C° 1.5 mm 1 mps 708 mmHg 95%
    22:00 +21°C° 1.5 mm 0 mps 709 mmHg 95%
    23:00 +23°C° 0.4 mm 1 mps 709 mmHg 95%

    27 February, Tuesday

    Time Temperature Precipitation Wind Pressure Humidity
    00:00 +23°C° 0.4 mm 1 mps 709 mmHg 96%
    01:00 +22°C° 0.4 mm 1 mps 708 mmHg 96%
    02:00 +22°C° 0 mm 1 mps 708 mmHg 96%
    03:00 +22°C° 0 mm 1 mps 707 mmHg 97%
    04:00 +22°C° 0 mm 1 mps 707 mmHg 97%
    05:00 +22°C° 0.1 mm 1 mps 707 mmHg 97%
    06:00 +20°C° 0.1 mm 0 mps 708 mmHg 97%
    07:00 +20°C° 0.1 mm 0 mps 709 mmHg 97%
    08:00 +23°C° 0.2 mm 1 mps 709 mmHg 92%
    09:00 +24°C° 0.2 mm 1 mps 710 mmHg 87%
    10:00 +26°C° 0.2 mm 1 mps 710 mmHg 81%
    11:00 +28°C° 0 mm 1 mps 710 mmHg 71%
    12:00 +30°C° 0 mm 1 mps 709 mmHg 61%
    13:00 +32°C° 0 mm 2 mps 708 mmHg 51%
    14:00 +31°C° 0.5 mm 1 mps 708 mmHg 57%
    15:00 +30°C° 0.5 mm 1 mps 707 mmHg 64%
    16:00 +29°C° 0.5 mm 1 mps 706 mmHg 70%
    17:00 +27°C° 0.5 mm 1 mps 706 mmHg 78%
    18:00 +25°C° 0.5 mm 1 mps 707 mmHg 85%
    19:00 +24°C° 0.5 mm 1 mps 707 mmHg 93%
    20:00 +23°C° 0 mm 1 mps 708 mmHg 93%
    21:00 +23°C° 0 mm 1 mps 708 mmHg 93%
    22:00 +23°C° 0 mm 1 mps 709 mmHg 94%
    23:00 +23°C° 0 mm 1 mps 708 mmHg 94%

    28 February, Wednesday

    Time Temperature Precipitation Wind Pressure Humidity
    00:00 +22°C° 0 mm 1 mps 708 mmHg 94%
    01:00 +22°C° 0 mm 1 mps 708 mmHg 94%
    02:00 +22°C° 0 mm 1 mps 707 mmHg 95%
    03:00 +20°C° 0 mm 0 mps 707 mmHg 95%
    04:00 +20°C° 0 mm 0 mps 707 mmHg 96%
    05:00 +20°C° 0 mm 0 mps 707 mmHg 95%
    06:00 +20°C° 0 mm 0 mps 708 mmHg 95%
    07:00 +20°C° 0 mm 0 mps 708 mmHg 95%
    08:00 +22°C° 0 mm 0 mps 709 mmHg 88%
    09:00 +25°C° 0 mm 1 mps 709 mmHg 81%
    10:00 +27°C° 0 mm 1 mps 710 mmHg 74%
    11:00 +29°C° 0 mm 1 mps 709 mmHg 66%
    12:00 +31°C° 0 mm 1 mps 708 mmHg 58%
    13:00 +32°C° 0 mm 1 mps 708 mmHg 50%
    14:00 +32°C° 0.2 mm 1 mps 707 mmHg 55%
    15:00 +31°C° 0.2 mm 1 mps 706 mmHg 60%
    16:00 +30°C° 0.2 mm 1 mps 706 mmHg 66%
    17:00 +28°C° 0.9 mm 1 mps 706 mmHg 74%
    18:00 +26°C° 0.9 mm 1 mps 706 mmHg 83%
    19:00 +24°C° 0.9 mm 1 mps 707 mmHg 92%
    20:00 +24°C° 0.3 mm 1 mps 707 mmHg 92%
    21:00 +23°C° 0.3 mm 1 mps 708 mmHg 93%
    22:00 +23°C° 0.3 mm 1 mps 709 mmHg 93%
    23:00 +23°C° 0.1 mm 1 mps 708 mmHg 94%

    1 March, Thursday

    Time Temperature Precipitation Wind Pressure Humidity
    00:00 +23°C° 0.1 mm 1 mps 708 mmHg 95%
    01:00 +23°C° 0.1 mm 1 mps 708 mmHg 95%
    02:00 +22°C° 0.2 mm 1 mps 707 mmHg 96%
    03:00 +22°C° 0.2 mm 1 mps 707 mmHg 96%
    04:00 +22°C° 0.2 mm 1 mps 707 mmHg 97%
    05:00 +22°C° 0.6 mm 1 mps 707 mmHg 97%
    06:00 +20°C° 0.6 mm 0 mps 708 mmHg 97%
    07:00 +20°C° 0.6 mm 0 mps 708 mmHg 97%
    08:00 +24°C° 0.4 mm 1 mps 709 mmHg 92%
    09:00 +25°C° 0.4 mm 1 mps 709 mmHg 87%
    10:00 +26°C° 0.4 mm 1 mps 710 mmHg 82%
    11:00 +27°C° 0.4 mm 1 mps 709 mmHg 78%
    12:00 +28°C° 0.4 mm 1 mps 709 mmHg 74%
    13:00 +29°C° 0.4 mm 1 mps 708 mmHg 71%
    14:00 +28°C° 0.9 mm 1 mps 708 mmHg 76%
    15:00 +27°C° 0.9 mm 1 mps 707 mmHg 81%
    16:00 +26°C° 0.9 mm 1 mps 707 mmHg 86%
    17:00 +25°C° 0.7 mm 1 mps 707 mmHg 89%
    18:00 +24°C° 0.7 mm 1 mps 707 mmHg 92%
    19:00 +23°C° 0.7 mm 1 mps 708 mmHg 95%
    20:00 +23°C° 0.1 mm 1 mps 708 mmHg 95%
    21:00 +23°C° 0.1 mm 1 mps 708 mmHg 95%
    22:00 +22°C° 0.1 mm 1 mps 709 mmHg 96%
    23:00 +22°C° 0 mm 1 mps 708 mmHg 96%
    Show more